Location: Powder Track
(41.8531°N, 72.3584°W)
Time: 09:28:08
(UTC+00:00)

Transit 4A - Pass Details

Date: 06 August 2021
Orbit: 871 x 974 km, 66.8° (Epoch: 20 September)

Event Time Altitude Azimuth Distance (km) Brightness Sun altitude
Rises 04:25:17 0° 234° (SW) 3,486 - -31.1°
Reaches altitude 10° 04:27:59 10° 243° (WSW) 2,538 - -31.2°
Exits shadow 04:31:54 32° 279° (W) 1,461 9.0 -31.3°
Maximum altitude 04:33:21 37° 309° (NW) 1,337 9.0 -31.3°
Drops below altitude 10° 04:38:43 10° 16° (NNE) 2,525 10.9 -31.4°
Sets 04:41:25 0° 25° (NNE) 3,467 11.7 -31.4°
